Weather History for Alpine, TX

Change the Weather History Date:

Friday, May 24, 2013

  Actual Average (KMRF) Record (KMRF)
Temperature  
Mean Temperature 72 °F -  
Max Temperature 84 °F 84 °F 96 °F (2000)
Min Temperature 59 °F 52 °F 44 °F (2008)
Cooling Degree Days 6    
Growing Degree Days 22 (Base 50)    
Moisture  
Dew Point 55 °F    
Average Humidity 62    
Maximum Humidity 97    
Minimum Humidity 36    
Precipitation  
Precipitation 0.01 in - - ()
Sea Level Pressure  
Sea Level Pressure 30.16 in    
Wind  
Wind Speed 8 mph (SE)    
Max Wind Speed 18 mph    
Max Gust Speed 29 mph    
Visibility 10 miles    
Events      
Averages and records for this station are not official NWS values.
T = Trace of Precipitation, MM = Missing Value Source: NWS Daily Summary

Daily Weather History Graph

Daily Weather History Graph

Search for Another Location

Airport:

Trip Planner

Search our weather history database for the weather conditions in past years. The results will help you decide how hot, cold, wet, or windy it might be!

Date:

Astronomy

May. 24, 2013 Rise Set
Actual Time 6:55 AM CDT 8:47 PM CDT
Civil Twilight 6:28 AM CDT 9:14 PM CDT
Nautical Twilight 5:56 AM CDT 9:47 PM CDT
Astronomical Twilight 5:22 AM CDT 10:21 PM CDT
Moon 8:34 PM CDT (5/24) 6:26 AM CDT (5/24)
Length of Visible Light 14h 45m
Length of Day
13h 52m
Full, 100% of the Moon is Illuminated
May 24
Full
May 24
Full
May 31
Last Quarter
Jun 8
New
Jun 16
First Quarter

Hourly Weather History & Observations

Time (CDT) Temp. Heat Index Dew Point Humidity Pressure Visibility Wind Dir Wind Speed Gust Speed Precip Events Conditions
12:15 AM 61.9 °F - 56.1 °F 81% 30.19 in 10.0 mi South 9.2 mph - N/A   Clear
12:35 AM 61.5 °F - 55.9 °F 82% 30.18 in 10.0 mi SW 6.9 mph - N/A   Clear
12:55 AM 62.8 °F - 54.7 °F 75% 30.16 in 10.0 mi South 9.2 mph - N/A   Clear
1:15 AM 62.6 °F - 54.9 °F 76% 30.15 in 10.0 mi SW 9.2 mph - N/A   Clear
1:35 AM 63.7 °F - 54.0 °F 71% 30.15 in 10.0 mi SSW 9.2 mph - N/A   Clear
1:55 AM 67.5 °F - 50.7 °F 55% 30.16 in 10.0 mi South 6.9 mph - N/A   Clear
2:15 AM 67.8 °F - 50.2 °F 53% 30.16 in 10.0 mi SW 11.5 mph - N/A   Clear
2:35 AM 66.4 °F - 51.1 °F 58% 30.14 in 10.0 mi WSW 8.1 mph - N/A   Clear
2:55 AM 66.7 °F - 50.5 °F 56% 30.13 in 10.0 mi WSW 4.6 mph - N/A   Clear
3:15 AM 68.0 °F - 50.2 °F 53% 30.15 in 10.0 mi SE 5.8 mph - N/A   Clear
3:35 AM 67.8 °F - 50.7 °F 54% 30.14 in 10.0 mi South 9.2 mph - N/A   Clear
3:55 AM 67.3 °F - 50.7 °F 55% 30.16 in 10.0 mi ESE 6.9 mph - N/A   Clear
4:15 AM 64.4 °F - 52.7 °F 66% 30.15 in 10.0 mi Calm Calm - N/A   Clear
4:35 AM 61.7 °F - 53.1 °F 73% 30.13 in 10.0 mi NNW 4.6 mph - N/A   Clear
4:55 AM 60.8 °F - 53.2 °F 76% 30.13 in 10.0 mi North 4.6 mph - N/A   Clear
5:15 AM 61.7 °F - 53.8 °F 75% 30.15 in 10.0 mi East 5.8 mph - N/A   Clear
5:35 AM 61.9 °F - 54.1 °F 76% 30.17 in 10.0 mi ENE 9.2 mph - N/A   Clear
5:55 AM 60.1 °F - 57.9 °F 93% 30.18 in 10.0 mi ENE 8.1 mph - N/A   Clear
6:15 AM 59.5 °F - 58.5 °F 96% 30.19 in 7.0 mi NNE 4.6 mph - N/A   Scattered Clouds
6:35 AM 59.4 °F - 58.6 °F 97% 30.19 in 5.0 mi North 6.9 mph - N/A   Mostly Cloudy
6:55 AM 59.5 °F - 58.6 °F 97% 30.19 in 5.0 mi North 5.8 mph - N/A   Mostly Cloudy
7:15 AM 60.4 °F - 59.0 °F 95% 30.20 in 7.0 mi NE 3.5 mph - N/A   Overcast
7:35 AM 61.9 °F - 59.2 °F 91% 30.20 in 7.0 mi ESE 9.2 mph - N/A   Overcast
7:55 AM 61.9 °F - 58.8 °F 90% 30.21 in 7.0 mi East 10.4 mph - N/A   Overcast
8:15 AM 61.9 °F - 58.3 °F 88% 30.21 in 10.0 mi East 6.9 mph - N/A   Mostly Cloudy
8:35 AM 62.2 °F - 57.6 °F 85% 30.21 in 10.0 mi ESE 4.6 mph - N/A   Mostly Cloudy
8:55 AM 62.6 °F - 57.4 °F 83% 30.21 in 10.0 mi Calm Calm - N/A   Scattered Clouds
9:15 AM 63.7 °F - 58.1 °F 82% 30.22 in 10.0 mi Calm Calm - N/A   Clear
9:35 AM 64.0 °F - 58.1 °F 81% 30.21 in 10.0 mi Calm Calm - N/A   Clear
9:55 AM 65.5 °F - 57.7 °F 76% 30.21 in 10.0 mi Calm Calm - N/A   Clear
10:15 AM 67.5 °F - 58.1 °F 72% 30.22 in 10.0 mi Calm Calm - N/A   Clear
10:35 AM 68.2 °F - 58.8 °F 72% 30.21 in 10.0 mi NNE 3.5 mph - N/A   Clear
11:15 AM 70.5 °F - 59.5 °F 68% 30.21 in 10.0 mi Calm Calm - N/A   Clear
11:35 AM 72.5 °F - 57.7 °F 60% 30.20 in 10.0 mi South 10.4 mph - N/A   Clear
12:35 PM 73.8 °F - 57.6 °F 57% 30.20 in 10.0 mi SSE 10.4 mph 16.1 mph N/A   Clear
12:55 PM 76.5 °F - 57.6 °F 52% 30.20 in 10.0 mi SSE 10.4 mph - N/A   Clear
1:15 PM 75.9 °F - 57.0 °F 52% 30.19 in 10.0 mi SSE 8.1 mph - N/A   Clear
1:35 PM 79.3 °F - 56.8 °F 46% 30.17 in 10.0 mi SE 10.4 mph - N/A   Clear
2:35 PM 81.1 °F 80.8 °F 54.9 °F 40% 30.17 in 10.0 mi Calm Calm - N/A   Clear
2:55 PM 82.2 °F 81.5 °F 55.2 °F 39% 30.17 in 10.0 mi SE 5.8 mph - N/A   Clear
3:15 PM 83.3 °F 82.8 °F 57.2 °F 41% 30.16 in 10.0 mi East 9.2 mph 24.2 mph N/A   Clear
4:55 PM 84.2 °F 83.0 °F 55.2 °F 37% 30.11 in 10.0 mi ENE 10.4 mph - N/A   Clear
5:15 PM 84.4 °F 83.2 °F 55.6 °F 37% 30.11 in 10.0 mi ENE 9.2 mph - N/A   Scattered Clouds
5:35 PM 83.8 °F 82.7 °F 55.2 °F 37% 30.10 in 10.0 mi ENE 10.4 mph - N/A   Scattered Clouds
5:55 PM 84.6 °F 83.2 °F 54.9 °F 36% 30.09 in 10.0 mi ENE 11.5 mph - N/A   Clear
6:15 PM 84.4 °F 83.1 °F 54.9 °F 36% 30.09 in 10.0 mi ENE 5.8 mph - N/A   Clear
6:35 PM 83.5 °F 82.4 °F 54.9 °F 37% 30.09 in 10.0 mi NE 5.8 mph - N/A   Clear
6:55 PM 83.8 °F 82.6 °F 54.3 °F 36% 30.08 in 10.0 mi ENE 4.6 mph - N/A   Clear
7:15 PM 83.5 °F 82.4 °F 54.7 °F 37% 30.08 in 10.0 mi ESE 9.2 mph - N/A   Clear
7:35 PM 81.7 °F 81.2 °F 54.9 °F 40% 30.08 in 10.0 mi SE 5.8 mph - N/A   Clear
7:55 PM 81.0 °F 80.7 °F 54.9 °F 41% 30.08 in 10.0 mi SE 8.1 mph - N/A   Clear
8:15 PM 79.5 °F - 54.7 °F 42% 30.09 in 10.0 mi SE 8.1 mph - N/A   Clear
8:35 PM 78.1 °F - 54.9 °F 45% 30.09 in 10.0 mi SSE 10.4 mph - N/A   Clear
8:55 PM 75.4 °F - 56.3 °F 51% 30.10 in 10.0 mi SE 16.1 mph 21.9 mph N/A   Clear
9:35 PM 72.5 °F - 53.8 °F 52% 30.12 in 10.0 mi SE 18.4 mph 26.5 mph N/A   Clear
9:55 PM 71.6 °F - 53.6 °F 53% 30.13 in 10.0 mi SSE 16.1 mph 24.2 mph N/A   Scattered Clouds
10:15 PM 70.9 °F - 54.5 °F 56% 30.15 in 10.0 mi SSE 17.3 mph 23.0 mph N/A   Mostly Cloudy
10:35 PM 69.8 °F - 52.0 °F 53% 30.15 in 10.0 mi SSE 17.3 mph 24.2 mph N/A   Scattered Clouds
10:55 PM 69.1 °F - 51.4 °F 53% 30.15 in 10.0 mi SSE 18.4 mph 24.2 mph N/A   Clear
11:15 PM 68.9 °F - 51.8 °F 54% 30.16 in 10.0 mi SSE 16.1 mph 28.8 mph N/A   Clear
11:35 PM 68.2 °F - 52.7 °F 58% 30.16 in 10.0 mi SSE 16.1 mph 26.5 mph N/A   Clear
11:55 PM 68.0 °F - 52.9 °F 58% 30.16 in 10.0 mi SSE 13.8 mph 24.2 mph N/A   Clear